Time,TemperatureF,DewpointF,PressureIn,WindDirection,WindDirectionDegrees,WindSpeedMPH,WindSpeedGustMPH,Humidity,HourlyPrecipIn,Conditions,Clouds,dailyrainin,SoftwareType,DateUTC
2013-02-17 00:01:00,47.4,27.0,30.16,North,0,0.0,0.0,46,0.00,,,0.00,WUHU216HW,2013-02-17 06:01:00,
2013-02-17 00:06:00,47.4,27.0,30.16,North,0,0.0,0.0,46,0.00,,,0.00,WUHU216HW,2013-02-17 06:06:00,
2013-02-17 00:11:00,47.3,27.4,30.16,North,0,0.0,0.0,46,0.00,,,0.00,WUHU216HW,2013-02-17 06:11:00,
2013-02-17 00:16:00,47.3,27.4,30.16,North,0,0.0,0.0,46,0.00,,,0.00,WUHU216HW,2013-02-17 06:16:00,
2013-02-17 00:22:00,47.4,27.5,30.16,North,0,0.0,0.0,46,0.00,,,0.00,WUHU216HW,2013-02-17 06:22:00,
2013-02-17 00:27:00,47.8,27.3,30.15,North,0,0.0,0.0,45,0.00,,,0.00,WUHU216HW,2013-02-17 06:27:00,
2013-02-17 00:32:00,48.0,27.5,30.16,North,0,0.0,0.0,45,0.00,,,0.00,WUHU216HW,2013-02-17 06:32:00,
2013-02-17 00:37:00,47.8,27.3,30.15,North,0,0.0,0.0,45,0.00,,,0.00,WUHU216HW,2013-02-17 06:37:00,
2013-02-17 00:43:00,48.0,27.5,30.15,North,0,0.0,0.0,45,0.00,,,0.00,WUHU216HW,2013-02-17 06:43:00,
2013-02-17 00:48:00,48.2,27.6,30.15,North,0,0.0,0.0,45,0.00,,,0.00,WUHU216HW,2013-02-17 06:48:00,
2013-02-17 00:54:00,48.3,27.8,30.15,North,0,0.0,0.0,45,0.00,,,0.00,WUHU216HW,2013-02-17 06:54:00,
2013-02-17 00:59:00,48.3,27.8,30.15,North,0,0.0,0.0,45,0.00,,,0.00,WUHU216HW,2013-02-17 06:59:00,
2013-02-17 01:04:00,48.3,27.8,30.15,North,0,0.0,0.0,45,0.00,,,0.00,WUHU216HW,2013-02-17 07:04:00,
2013-02-17 01:09:00,48.3,27.8,30.15,North,0,0.0,0.0,45,0.00,,,0.00,WUHU216HW,2013-02-17 07:09:00,
2013-02-17 01:15:00,48.3,27.8,30.15,North,0,0.0,0.0,45,0.00,,,0.00,WUHU216HW,2013-02-17 07:15:00,
2013-02-17 01:20:00,48.3,27.8,30.15,North,0,0.0,0.0,45,0.00,,,0.00,WUHU216HW,2013-02-17 07:20:00,
2013-02-17 01:31:00,48.3,27.8,30.15,North,0,0.0,0.0,45,0.00,,,0.00,WUHU216HW,2013-02-17 07:31:00,
2013-02-17 01:36:00,48.2,27.6,30.15,North,0,0.0,0.0,45,0.00,,,0.00,WUHU216HW,2013-02-17 07:36:00,
2013-02-17 01:41:00,48.0,27.5,30.15,North,0,0.0,0.0,45,0.00,,,0.00,WUHU216HW,2013-02-17 07:41:00,
2013-02-17 01:46:00,48.3,27.8,30.14,North,0,0.0,0.0,45,0.00,,,0.00,WUHU216HW,2013-02-17 07:46:00,
2013-02-17 01:51:00,48.0,27.5,30.15,North,0,0.0,0.0,45,0.00,,,0.00,WUHU216HW,2013-02-17 07:51:00,
2013-02-17 01:56:00,48.0,27.5,30.14,North,0,0.0,0.0,45,0.00,,,0.00,WUHU216HW,2013-02-17 07:56:00,
2013-02-17 02:01:00,48.0,27.5,30.14,North,0,0.0,0.0,45,0.00,,,0.00,WUHU216HW,2013-02-17 08:01:00,
2013-02-17 02:07:00,48.3,27.8,30.14,North,0,0.0,0.0,45,0.00,,,0.00,WUHU216HW,2013-02-17 08:07:00,
2013-02-17 02:12:00,48.5,27.4,30.14,North,0,0.0,0.0,44,0.00,,,0.00,WUHU216HW,2013-02-17 08:12:00,
2013-02-17 02:17:00,48.7,28.1,30.13,North,0,0.0,0.0,45,0.00,,,0.00,WUHU216HW,2013-02-17 08:17:00,
2013-02-17 02:22:00,48.7,28.1,30.13,North,0,0.0,0.0,44,0.00,,,0.00,WUHU216HW,2013-02-17 08:22:00,
2013-02-17 02:27:00,48.9,27.8,30.13,North,0,0.0,0.0,44,0.00,,,0.00,WUHU216HW,2013-02-17 08:27:00,
2013-02-17 02:32:00,48.9,27.8,30.13,North,0,0.0,0.0,44,0.00,,,0.00,WUHU216HW,2013-02-17 08:32:00,
2013-02-17 02:37:00,48.9,27.8,30.13,North,0,0.0,0.0,44,0.00,,,0.00,WUHU216HW,2013-02-17 08:37:00,
2013-02-17 02:42:00,48.9,27.8,30.13,North,0,0.0,0.0,44,0.00,,,0.00,WUHU216HW,2013-02-17 08:42:00,
2013-02-17 02:48:00,48.9,27.8,30.13,North,0,0.0,0.0,44,0.00,,,0.00,WUHU216HW,2013-02-17 08:48:00,
2013-02-17 02:53:00,48.9,27.8,30.13,North,0,0.0,0.0,44,0.00,,,0.00,WUHU216HW,2013-02-17 08:53:00,
2013-02-17 02:58:00,48.5,27.4,30.13,North,0,0.0,0.0,44,0.00,,,0.00,WUHU216HW,2013-02-17 08:58:00,
2013-02-17 03:03:00,48.3,27.3,30.12,North,0,0.0,0.0,44,0.00,,,0.00,WUHU216HW,2013-02-17 09:03:00,
2013-02-17 03:08:00,48.3,27.3,30.12,North,0,0.0,0.0,44,0.00,,,0.00,WUHU216HW,2013-02-17 09:08:00,
2013-02-17 03:13:00,48.0,26.9,30.13,North,0,0.0,0.0,44,0.00,,,0.00,WUHU216HW,2013-02-17 09:13:00,
2013-02-17 03:18:00,48.0,26.9,30.12,North,0,0.0,0.0,44,0.00,,,0.00,WUHU216HW,2013-02-17 09:18:00,
2013-02-17 03:24:00,47.8,27.3,30.12,North,0,0.0,0.0,45,0.00,,,0.00,WUHU216HW,2013-02-17 09:24:00,
2013-02-17 03:29:00,47.6,27.1,30.12,North,0,0.0,0.0,45,0.00,,,0.00,WUHU216HW,2013-02-17 09:29:00,
2013-02-17 03:34:00,47.6,27.1,30.12,North,0,0.0,0.0,45,0.00,,,0.00,WUHU216HW,2013-02-17 09:34:00,
2013-02-17 03:39:00,47.4,27.0,30.12,North,0,0.0,0.0,45,0.00,,,0.00,WUHU216HW,2013-02-17 09:39:00,
2013-02-17 03:44:00,47.1,26.7,30.12,North,0,0.0,0.0,45,0.00,,,0.00,WUHU216HW,2013-02-17 09:44:00,
2013-02-17 03:49:00,46.9,26.5,30.12,North,0,0.0,0.0,46,0.00,,,0.00,WUHU216HW,2013-02-17 09:49:00,
2013-02-17 03:54:00,46.9,26.5,30.12,North,0,0.0,0.0,45,0.00,,,0.00,WUHU216HW,2013-02-17 09:54:00,
2013-02-17 03:59:00,46.9,27.0,30.11,North,0,0.0,0.0,45,0.00,,,0.00,WUHU216HW,2013-02-17 09:59:00,
2013-02-17 04:04:00,46.9,27.0,30.12,North,0,0.0,0.0,45,0.00,,,0.00,WUHU216HW,2013-02-17 10:04:00,
2013-02-17 04:10:00,46.7,26.3,30.11,North,0,0.0,0.0,46,0.00,,,0.00,WUHU216HW,2013-02-17 10:10:00,
2013-02-17 04:15:00,46.7,26.3,30.11,North,0,0.0,0.0,45,0.00,,,0.00,WUHU216HW,2013-02-17 10:15:00,
2013-02-17 04:20:00,46.2,26.4,30.11,North,0,0.0,0.0,46,0.00,,,0.00,WUHU216HW,2013-02-17 10:20:00,
2013-02-17 04:25:00,46.2,26.4,30.11,North,0,0.0,0.0,46,0.00,,,0.00,WUHU216HW,2013-02-17 10:25:00,
2013-02-17 04:30:00,46.2,26.4,30.11,North,0,0.0,0.0,46,0.00,,,0.00,WUHU216HW,2013-02-17 10:30:00,
2013-02-17 04:35:00,46.4,26.0,30.11,North,0,0.0,0.0,45,0.00,,,0.00,WUHU216HW,2013-02-17 10:35:00,
2013-02-17 04:40:00,46.5,26.2,30.11,North,0,0.0,0.0,44,0.00,,,0.00,WUHU216HW,2013-02-17 10:40:00,
2013-02-17 04:45:00,46.9,26.0,30.11,North,0,0.0,0.0,44,0.00,,,0.00,WUHU216HW,2013-02-17 10:45:00,
2013-02-17 04:50:00,46.9,26.0,30.11,North,0,0.0,0.0,44,0.00,,,0.00,WUHU216HW,2013-02-17 10:50:00,
2013-02-17 04:55:00,46.9,26.0,30.11,North,0,0.0,0.0,44,0.00,,,0.00,WUHU216HW,2013-02-17 10:55:00,
2013-02-17 05:00:00,46.7,25.8,30.10,North,0,0.0,0.0,44,0.00,,,0.00,WUHU216HW,2013-02-17 11:00:00,
2013-02-17 05:05:00,46.5,25.6,30.11,North,0,0.0,0.0,44,0.00,,,0.00,WUHU216HW,2013-02-17 11:05:00,
2013-02-17 05:10:00,46.5,25.6,30.10,North,0,0.0,0.0,44,0.00,,,0.00,WUHU216HW,2013-02-17 11:10:00,
2013-02-17 05:15:00,46.5,25.6,30.10,North,0,0.0,0.0,43,0.00,,,0.00,WUHU216HW,2013-02-17 11:15:00,
2013-02-17 05:21:00,46.5,25.6,30.10,North,0,0.0,0.0,43,0.00,,,0.00,WUHU216HW,2013-02-17 11:21:00,
2013-02-17 05:26:00,46.5,25.6,30.10,North,0,0.0,0.0,43,0.00,,,0.00,WUHU216HW,2013-02-17 11:26:00,
2013-02-17 05:31:00,46.5,25.6,30.10,North,0,0.0,0.0,43,0.00,,,0.00,WUHU216HW,2013-02-17 11:31:00,
2013-02-17 05:36:00,46.7,25.3,30.10,North,0,0.0,0.0,43,0.00,,,0.00,WUHU216HW,2013-02-17 11:36:00,
2013-02-17 05:42:00,46.9,24.9,30.10,North,0,0.0,0.0,42,0.00,,,0.00,WUHU216HW,2013-02-17 11:42:00,
2013-02-17 05:47:00,46.9,24.9,30.10,North,0,0.0,0.0,42,0.00,,,0.00,WUHU216HW,2013-02-17 11:47:00,
2013-02-17 05:52:00,47.3,25.2,30.10,North,0,0.0,0.0,42,0.00,,,0.00,WUHU216HW,2013-02-17 11:52:00,
2013-02-17 05:57:00,47.3,25.2,30.10,North,0,0.0,0.0,42,0.00,,,0.00,WUHU216HW,2013-02-17 11:57:00,
2013-02-17 06:02:00,47.4,25.4,30.10,North,0,0.0,0.0,41,0.00,,,0.00,WUHU216HW,2013-02-17 12:02:00,
2013-02-17 06:07:00,47.4,24.8,30.10,North,0,0.0,0.0,41,0.00,,,0.00,WUHU216HW,2013-02-17 12:07:00,
2013-02-17 06:13:00,47.4,24.8,30.10,North,0,0.0,0.0,41,0.00,,,0.00,WUHU216HW,2013-02-17 12:13:00,
2013-02-17 06:18:00,47.4,24.8,30.10,North,0,0.0,0.0,41,0.00,,,0.00,WUHU216HW,2013-02-17 12:18:00,
2013-02-17 06:24:00,47.4,24.8,30.10,North,0,0.0,0.0,41,0.00,,,0.00,WUHU216HW,2013-02-17 12:24:00,
2013-02-17 06:29:00,47.8,25.1,30.10,North,0,0.0,0.0,41,0.00,,,0.00,WUHU216HW,2013-02-17 12:29:00,
2013-02-17 06:34:00,47.8,25.1,30.10,North,0,0.0,0.0,41,0.00,,,0.00,WUHU216HW,2013-02-17 12:34:00,
2013-02-17 06:39:00,47.8,25.1,30.10,North,0,0.0,0.0,41,0.00,,,0.00,WUHU216HW,2013-02-17 12:39:00,
2013-02-17 06:44:00,47.1,25.6,30.10,North,0,0.0,0.0,44,0.00,,,0.00,WUHU216HW,2013-02-17 12:44:00,
2013-02-17 06:49:00,46.5,26.2,30.11,North,0,0.0,0.0,45,0.00,,,0.00,WUHU216HW,2013-02-17 12:49:00,
2013-02-17 06:54:00,46.4,27.1,30.11,North,0,0.0,0.0,47,0.00,,,0.00,WUHU216HW,2013-02-17 12:54:00,
2013-02-17 06:59:00,46.2,27.5,30.11,North,0,0.0,0.0,48,0.00,,,0.00,WUHU216HW,2013-02-17 12:59:00,
2013-02-17 07:04:00,45.8,27.7,30.11,North,0,0.0,0.0,49,0.00,,,0.00,WUHU216HW,2013-02-17 13:04:00,
2013-02-17 07:09:00,45.8,27.7,30.11,North,0,0.0,0.0,49,0.00,,,0.00,WUHU216HW,2013-02-17 13:09:00,
2013-02-17 07:14:00,45.8,27.7,30.12,North,0,0.0,0.0,49,0.00,,,0.00,WUHU216HW,2013-02-17 13:14:00,
2013-02-17 07:19:00,45.5,27.9,30.11,North,0,0.0,0.0,50,0.00,,,0.00,WUHU216HW,2013-02-17 13:19:00,
2013-02-17 07:24:00,45.3,28.2,30.12,North,0,0.0,0.0,51,0.00,,,0.00,WUHU216HW,2013-02-17 13:24:00,
2013-02-17 07:29:00,45.3,28.2,30.12,North,0,0.0,0.0,52,0.00,,,0.00,WUHU216HW,2013-02-17 13:29:00,
2013-02-17 07:36:00,45.1,28.5,30.12,North,0,0.0,0.0,52,0.00,,,0.00,WUHU216HW,2013-02-17 13:36:00,
2013-02-17 07:41:00,45.3,28.6,30.12,North,0,0.0,0.0,52,0.00,,,0.00,WUHU216HW,2013-02-17 13:41:00,
2013-02-17 07:46:00,45.6,29.0,30.12,North,0,0.0,0.0,52,0.00,,,0.00,WUHU216HW,2013-02-17 13:46:00,
2013-02-17 07:51:00,46.0,29.3,30.12,North,0,0.0,0.0,52,0.00,,,0.00,WUHU216HW,2013-02-17 13:51:00,
2013-02-17 07:56:00,46.0,29.3,30.12,North,0,0.0,0.0,52,0.00,,,0.00,WUHU216HW,2013-02-17 13:56:00,
2013-02-17 08:01:00,46.7,29.9,30.13,North,0,0.0,0.0,52,0.00,,,0.00,WUHU216HW,2013-02-17 14:01:00,
2013-02-17 08:08:00,46.9,29.7,30.12,North,0,0.0,0.0,51,0.00,,,0.00,WUHU216HW,2013-02-17 14:08:00,
2013-02-17 08:13:00,47.4,30.1,30.12,North,0,0.0,0.0,51,0.00,,,0.00,WUHU216HW,2013-02-17 14:13:00,
2013-02-17 08:18:00,47.8,30.0,30.12,North,0,0.0,0.0,50,0.00,,,0.00,WUHU216HW,2013-02-17 14:18:00,
2013-02-17 08:23:00,48.3,30.0,30.13,North,0,0.0,0.0,49,0.00,,,0.00,WUHU216HW,2013-02-17 14:23:00,
2013-02-17 08:28:00,48.7,29.8,30.12,North,0,0.0,0.0,48,0.00,,,0.00,WUHU216HW,2013-02-17 14:28:00,
2013-02-17 08:33:00,48.9,30.5,30.12,North,0,0.0,0.0,49,0.00,,,0.00,WUHU216HW,2013-02-17 14:33:00,
2013-02-17 08:39:00,49.4,31.0,30.13,North,0,0.0,0.0,49,0.00,,,0.00,WUHU216HW,2013-02-17 14:39:00,
2013-02-17 08:44:00,49.6,31.2,30.13,North,0,0.0,0.0,48,0.00,,,0.00,WUHU216HW,2013-02-17 14:44:00,
2013-02-17 08:49:00,50.0,31.6,30.13,North,0,0.0,0.0,49,0.00,,,0.00,WUHU216HW,2013-02-17 14:49:00,
2013-02-17 08:54:00,50.5,31.5,30.13,North,0,0.0,0.0,48,0.00,,,0.00,WUHU216HW,2013-02-17 14:54:00,
2013-02-17 08:59:00,50.9,31.8,30.13,North,0,0.0,0.0,48,0.00,,,0.00,WUHU216HW,2013-02-17 14:59:00,
2013-02-17 09:04:00,51.0,31.4,30.13,North,0,0.0,0.0,47,0.00,,,0.00,WUHU216HW,2013-02-17 15:04:00,
2013-02-17 09:09:00,51.9,32.8,30.13,North,0,0.0,0.0,48,0.00,,,0.00,WUHU216HW,2013-02-17 15:09:00,
2013-02-17 09:14:00,52.5,32.7,30.14,North,0,0.0,0.0,47,0.00,,,0.00,WUHU216HW,2013-02-17 15:14:00,
2013-02-17 09:20:00,52.8,32.5,30.13,North,0,0.0,0.0,46,0.00,,,0.00,WUHU216HW,2013-02-17 15:20:00,
2013-02-17 09:25:00,53.4,33.0,30.14,North,0,0.0,0.0,46,0.00,,,0.00,WUHU216HW,2013-02-17 15:25:00,
2013-02-17 09:30:00,54.3,33.2,30.14,North,0,0.0,0.0,45,0.00,,,0.00,WUHU216HW,2013-02-17 15:30:00,
2013-02-17 09:35:00,54.5,32.8,30.14,North,0,0.0,0.0,44,0.00,,,0.00,WUHU216HW,2013-02-17 15:35:00,
2013-02-17 09:40:00,55.0,32.8,30.13,North,0,0.0,0.0,43,0.00,,,0.00,WUHU216HW,2013-02-17 15:40:00,
2013-02-17 09:45:00,55.2,32.4,30.13,North,0,0.0,0.0,42,0.00,,,0.00,WUHU216HW,2013-02-17 15:45:00,
2013-02-17 09:50:00,55.5,32.7,30.13,North,0,0.0,0.0,42,0.00,,,0.00,WUHU216HW,2013-02-17 15:50:00,
2013-02-17 09:55:00,56.1,32.6,30.13,North,0,0.0,0.0,41,0.00,,,0.00,WUHU216HW,2013-02-17 15:55:00,
2013-02-17 10:00:00,56.8,32.7,30.13,North,0,0.0,0.0,40,0.00,,,0.00,WUHU216HW,2013-02-17 16:00:00,
2013-02-17 10:05:00,57.5,33.4,30.13,North,0,0.0,0.0,40,0.00,,,0.00,WUHU216HW,2013-02-17 16:05:00,
2013-02-17 10:10:00,58.2,32.6,30.13,North,0,0.0,0.0,38,0.00,,,0.00,WUHU216HW,2013-02-17 16:10:00,
2013-02-17 10:15:00,58.6,32.9,30.13,North,0,0.0,0.0,39,0.00,,,0.00,WUHU216HW,2013-02-17 16:15:00,
2013-02-17 10:20:00,59.3,33.6,30.13,North,0,0.0,0.0,38,0.00,,,0.00,WUHU216HW,2013-02-17 16:20:00,
2013-02-17 10:25:00,60.4,33.8,30.13,North,0,0.0,0.0,37,0.00,,,0.00,WUHU216HW,2013-02-17 16:25:00,
2013-02-17 10:30:00,60.2,32.9,30.13,North,0,0.0,0.0,36,0.00,,,0.00,WUHU216HW,2013-02-17 16:30:00,
2013-02-17 10:35:00,60.6,34.7,30.12,North,0,0.0,0.0,38,0.00,,,0.00,WUHU216HW,2013-02-17 16:35:00,
2013-02-17 10:40:00,61.5,34.8,30.12,North,0,0.0,0.0,37,0.00,,,0.00,WUHU216HW,2013-02-17 16:40:00,
2013-02-17 10:45:00,61.8,35.1,30.12,North,0,0.0,0.0,37,0.00,,,0.00,WUHU216HW,2013-02-17 16:45:00,
2013-02-17 10:50:00,62.2,34.7,30.12,North,0,0.0,0.0,36,0.00,,,0.00,WUHU216HW,2013-02-17 16:50:00,
2013-02-17 10:56:00,62.7,34.5,30.12,North,0,0.0,0.0,35,0.00,,,0.00,WUHU216HW,2013-02-17 16:56:00,
2013-02-17 11:01:00,62.9,35.3,30.11,North,0,0.0,0.0,36,0.00,,,0.00,WUHU216HW,2013-02-17 17:01:00,
2013-02-17 11:06:00,63.6,34.5,30.11,North,0,0.0,0.0,34,0.00,,,0.00,WUHU216HW,2013-02-17 17:06:00,
2013-02-17 11:11:00,63.3,34.2,30.11,North,0,0.0,0.0,34,0.00,,,0.00,WUHU216HW,2013-02-17 17:11:00,
2013-02-17 11:16:00,64.4,35.2,30.11,North,0,0.0,0.0,34,0.00,,,0.00,WUHU216HW,2013-02-17 17:16:00,
2013-02-17 11:21:00,64.9,35.7,30.11,North,0,0.0,0.0,34,0.00,,,0.00,WUHU216HW,2013-02-17 17:21:00,
2013-02-17 11:26:00,66.3,37.0,30.10,North,0,0.0,0.0,34,0.00,,,0.00,WUHU216HW,2013-02-17 17:26:00,
2013-02-17 11:31:00,67.4,37.9,30.11,North,0,0.0,0.0,34,0.00,,,0.00,WUHU216HW,2013-02-17 17:31:00,
2013-02-17 11:36:00,66.3,36.2,30.10,North,0,0.0,0.0,33,0.00,,,0.00,WUHU216HW,2013-02-17 17:36:00,
2013-02-17 11:41:00,65.3,36.0,30.10,North,0,0.0,0.0,34,0.00,,,0.00,WUHU216HW,2013-02-17 17:41:00,
2013-02-17 11:46:00,65.4,36.2,30.10,North,0,0.0,0.0,34,0.00,,,0.00,WUHU216HW,2013-02-17 17:46:00,
2013-02-17 11:51:00,66.3,37.0,30.09,North,0,0.0,0.0,34,0.00,,,0.00,WUHU216HW,2013-02-17 17:51:00,
2013-02-17 11:56:00,67.2,37.0,30.09,North,0,0.0,0.0,33,0.00,,,0.00,WUHU216HW,2013-02-17 17:56:00,
2013-02-17 12:02:00,66.7,37.3,30.09,North,0,0.0,0.0,34,0.00,,,0.00,WUHU216HW,2013-02-17 18:02:00,
2013-02-17 12:07:00,66.3,37.0,30.09,North,0,0.0,0.0,35,0.00,,,0.00,WUHU216HW,2013-02-17 18:07:00,
2013-02-17 12:12:00,65.8,37.2,30.09,North,0,0.0,0.0,35,0.00,,,0.00,WUHU216HW,2013-02-17 18:12:00,
2013-02-17 12:17:00,66.9,38.1,30.08,North,0,0.0,0.0,35,0.00,,,0.00,WUHU216HW,2013-02-17 18:17:00,
2013-02-17 12:22:00,67.6,37.3,30.08,North,0,0.0,0.0,33,0.00,,,0.00,WUHU216HW,2013-02-17 18:22:00,
2013-02-17 12:27:00,67.8,37.4,30.08,North,0,0.0,0.0,33,0.00,,,0.00,WUHU216HW,2013-02-17 18:27:00,
2013-02-17 12:32:00,68.1,37.0,30.08,North,0,0.0,0.0,34,0.00,,,0.00,WUHU216HW,2013-02-17 18:32:00,
2013-02-17 12:37:00,68.7,38.2,30.07,North,0,0.0,0.0,32,0.00,,,0.00,WUHU216HW,2013-02-17 18:37:00,
2013-02-17 12:43:00,67.8,37.4,30.07,North,0,0.0,0.0,33,0.00,,,0.00,WUHU216HW,2013-02-17 18:43:00,
2013-02-17 12:48:00,67.6,37.3,30.06,North,0,0.0,0.0,33,0.00,,,0.00,WUHU216HW,2013-02-17 18:48:00,
2013-02-17 12:53:00,67.6,37.3,30.07,North,0,0.0,0.0,33,0.00,,,0.00,WUHU216HW,2013-02-17 18:53:00,
2013-02-17 12:58:00,68.5,38.8,30.05,North,0,0.0,0.0,34,0.00,,,0.00,WUHU216HW,2013-02-17 18:58:00,
2013-02-17 13:03:00,68.7,38.2,30.05,North,0,0.0,0.0,33,0.00,,,0.00,WUHU216HW,2013-02-17 19:03:00,
2013-02-17 13:08:00,69.6,38.3,30.05,North,0,0.0,0.0,32,0.00,,,0.00,WUHU216HW,2013-02-17 19:08:00,
2013-02-17 13:13:00,68.9,38.4,30.04,North,0,0.0,0.0,33,0.00,,,0.00,WUHU216HW,2013-02-17 19:13:00,
2013-02-17 13:18:00,68.7,37.5,30.04,North,0,0.0,0.0,33,0.00,,,0.00,WUHU216HW,2013-02-17 19:18:00,
2013-02-17 13:25:00,69.8,38.5,30.03,North,0,0.0,0.0,32,0.00,,,0.00,WUHU216HW,2013-02-17 19:25:00,
2013-02-17 13:30:00,70.5,38.4,30.03,North,0,0.0,0.0,31,0.00,,,0.00,WUHU216HW,2013-02-17 19:30:00,
2013-02-17 13:35:00,70.3,38.2,30.03,North,0,0.0,0.0,32,0.00,,,0.00,WUHU216HW,2013-02-17 19:35:00,
2013-02-17 13:40:00,70.3,39.0,30.02,North,0,0.0,0.0,32,0.00,,,0.00,WUHU216HW,2013-02-17 19:40:00,
2013-02-17 13:45:00,70.7,38.5,30.02,North,0,0.0,0.0,31,0.00,,,0.00,WUHU216HW,2013-02-17 19:45:00,
2013-02-17 13:50:00,70.5,39.1,30.01,North,0,0.0,0.0,31,0.00,,,0.00,WUHU216HW,2013-02-17 19:50:00,
2013-02-17 13:55:00,70.5,39.1,30.01,North,0,0.0,0.0,31,0.00,,,0.00,WUHU216HW,2013-02-17 19:55:00,
2013-02-17 14:00:00,70.5,37.6,30.01,North,0,0.0,0.0,30,0.00,,,0.00,WUHU216HW,2013-02-17 20:00:00,
2013-02-17 14:05:00,69.6,37.6,30.01,North,0,0.0,0.0,31,0.00,,,0.00,WUHU216HW,2013-02-17 20:05:00,
2013-02-17 14:10:00,69.9,38.6,30.00,North,0,0.0,0.0,32,0.00,,,0.00,WUHU216HW,2013-02-17 20:10:00,
2013-02-17 14:15:00,71.2,39.0,30.00,North,0,0.0,0.0,31,0.00,,,0.00,WUHU216HW,2013-02-17 20:15:00,
2013-02-17 14:20:00,71.9,38.9,30.00,North,0,0.0,0.0,30,0.00,,,0.00,WUHU216HW,2013-02-17 20:20:00,
2013-02-17 14:25:00,71.7,39.5,29.99,North,0,0.0,0.0,31,0.00,,,0.00,WUHU216HW,2013-02-17 20:25:00,
2013-02-17 14:30:00,71.6,39.4,29.99,North,0,0.0,0.0,31,0.00,,,0.00,WUHU216HW,2013-02-17 20:30:00,
2013-02-17 14:35:00,70.7,39.3,29.99,North,0,0.0,0.0,33,0.00,,,0.00,WUHU216HW,2013-02-17 20:35:00,
2013-02-17 14:40:00,71.2,39.8,29.98,North,0,0.0,0.0,32,0.00,,,0.00,WUHU216HW,2013-02-17 20:40:00,
2013-02-17 14:45:00,70.5,39.9,29.98,North,0,0.0,0.0,33,0.00,,,0.00,WUHU216HW,2013-02-17 20:45:00,
2013-02-17 14:50:00,69.9,39.4,29.98,North,0,0.0,0.0,33,0.00,,,0.00,WUHU216HW,2013-02-17 20:50:00,
2013-02-17 14:55:00,70.3,40.4,29.98,North,0,0.0,0.0,34,0.00,,,0.00,WUHU216HW,2013-02-17 20:55:00,
2013-02-17 15:00:00,70.5,40.6,29.98,North,0,0.0,0.0,33,0.00,,,0.00,WUHU216HW,2013-02-17 21:00:00,
2013-02-17 15:05:00,69.9,40.1,29.97,North,0,0.0,0.0,34,0.00,,,0.00,WUHU216HW,2013-02-17 21:05:00,
2013-02-17 15:10:00,69.6,39.8,29.97,North,0,0.0,0.0,34,0.00,,,0.00,WUHU216HW,2013-02-17 21:10:00,
2013-02-17 15:16:00,69.6,39.8,29.97,North,0,0.0,0.0,34,0.00,,,0.00,WUHU216HW,2013-02-17 21:16:00,
2013-02-17 15:21:00,69.9,40.1,29.96,North,0,0.0,0.0,33,0.00,,,0.00,WUHU216HW,2013-02-17 21:21:00,
2013-02-17 15:26:00,69.4,39.6,29.96,North,0,0.0,0.0,34,0.00,,,0.00,WUHU216HW,2013-02-17 21:26:00,
2013-02-17 15:31:00,69.4,39.6,29.97,North,0,0.0,0.0,34,0.00,,,0.00,WUHU216HW,2013-02-17 21:31:00,
2013-02-17 15:36:00,69.6,40.5,29.96,North,0,0.0,0.0,35,0.00,,,0.00,WUHU216HW,2013-02-17 21:36:00,
2013-02-17 15:41:00,69.9,40.1,29.96,North,0,0.0,0.0,35,0.00,,,0.00,WUHU216HW,2013-02-17 21:41:00,
2013-02-17 15:46:00,69.9,40.1,29.96,North,0,0.0,0.0,34,0.00,,,0.00,WUHU216HW,2013-02-17 21:46:00,
2013-02-17 15:51:00,69.6,40.5,29.95,North,0,0.0,0.0,35,0.00,,,0.00,WUHU216HW,2013-02-17 21:51:00,
2013-02-17 15:56:00,70.1,41.0,29.95,North,0,0.0,0.0,35,0.00,,,0.00,WUHU216HW,2013-02-17 21:56:00,
2013-02-17 16:01:00,69.4,40.4,29.95,North,0,0.0,0.0,36,0.00,,,0.00,WUHU216HW,2013-02-17 22:01:00,
2013-02-17 16:07:00,69.0,40.8,29.95,North,0,0.0,0.0,36,0.00,,,0.00,WUHU216HW,2013-02-17 22:07:00,
2013-02-17 16:12:00,69.0,40.8,29.95,North,0,0.0,0.0,37,0.00,,,0.00,WUHU216HW,2013-02-17 22:12:00,
2013-02-17 16:17:00,68.5,41.0,29.95,North,0,0.0,0.0,37,0.00,,,0.00,WUHU216HW,2013-02-17 22:17:00,
2013-02-17 16:22:00,67.8,41.1,29.95,North,0,0.0,0.0,38,0.00,,,0.00,WUHU216HW,2013-02-17 22:22:00,
2013-02-17 16:27:00,67.6,41.0,29.95,North,0,0.0,0.0,39,0.00,,,0.00,WUHU216HW,2013-02-17 22:27:00,
2013-02-17 16:32:00,67.1,41.9,29.95,North,0,0.0,0.0,40,0.00,,,0.00,WUHU216HW,2013-02-17 22:32:00,
2013-02-17 16:37:00,66.5,41.5,29.95,North,0,0.0,0.0,40,0.00,,,0.00,WUHU216HW,2013-02-17 22:37:00,
2013-02-17 16:42:00,66.3,42.5,29.94,North,0,0.0,0.0,42,0.00,,,0.00,WUHU216HW,2013-02-17 22:42:00,
2013-02-17 16:47:00,66.3,42.5,29.94,North,0,0.0,0.0,42,0.00,,,0.00,WUHU216HW,2013-02-17 22:47:00,
2013-02-17 16:52:00,66.0,42.2,29.94,North,0,0.0,0.0,42,0.00,,,0.00,WUHU216HW,2013-02-17 22:52:00,
2013-02-17 16:57:00,66.0,42.2,29.94,North,0,0.0,0.0,41,0.00,,,0.00,WUHU216HW,2013-02-17 22:57:00,
2013-02-17 17:02:00,65.8,42.0,29.93,North,0,0.0,0.0,43,0.00,,,0.00,WUHU216HW,2013-02-17 23:02:00,
2013-02-17 17:07:00,65.6,42.4,29.93,North,0,0.0,0.0,43,0.00,,,0.00,WUHU216HW,2013-02-17 23:07:00,
2013-02-17 17:12:00,65.4,42.2,29.93,North,0,0.0,0.0,43,0.00,,,0.00,WUHU216HW,2013-02-17 23:12:00,
2013-02-17 17:17:00,65.3,42.7,29.93,North,0,0.0,0.0,44,0.00,,,0.00,WUHU216HW,2013-02-17 23:17:00,
2013-02-17 17:22:00,65.1,42.5,29.93,North,0,0.0,0.0,45,0.00,,,0.00,WUHU216HW,2013-02-17 23:22:00,
2013-02-17 17:28:00,64.9,42.9,29.93,North,0,0.0,0.0,45,0.00,,,0.00,WUHU216HW,2013-02-17 23:28:00,
2013-02-17 17:33:00,64.7,42.7,29.93,North,0,0.0,0.0,45,0.00,,,0.00,WUHU216HW,2013-02-17 23:33:00,
2013-02-17 17:38:00,64.5,43.1,29.93,North,0,0.0,0.0,46,0.00,,,0.00,WUHU216HW,2013-02-17 23:38:00,
2013-02-17 17:43:00,64.2,42.8,29.93,North,0,0.0,0.0,46,0.00,,,0.00,WUHU216HW,2013-02-17 23:43:00,
2013-02-17 17:49:00,64.0,43.2,29.93,North,0,0.0,0.0,47,0.00,,,0.00,WUHU216HW,2013-02-17 23:49:00,
2013-02-17 17:54:00,64.0,43.2,29.93,North,0,0.0,0.0,48,0.00,,,0.00,WUHU216HW,2013-02-17 23:54:00,
2013-02-17 17:59:00,63.5,44.5,29.94,North,0,0.0,0.0,50,0.00,,,0.00,WUHU216HW,2013-02-17 23:59:00,
2013-02-17 18:04:00,62.7,44.3,29.94,North,0,0.0,0.0,51,0.00,,,0.00,WUHU216HW,2013-02-18 00:04:00,
2013-02-17 18:09:00,62.2,44.3,29.93,North,0,0.0,0.0,52,0.00,,,0.00,WUHU216HW,2013-02-18 00:09:00,
2013-02-17 18:14:00,61.8,44.5,29.94,North,0,0.0,0.0,53,0.00,,,0.00,WUHU216HW,2013-02-18 00:14:00,
2013-02-17 18:19:00,61.5,44.6,29.94,North,0,0.0,0.0,54,0.00,,,0.00,WUHU216HW,2013-02-18 00:19:00,
2013-02-17 18:24:00,61.3,44.5,29.94,North,0,0.0,0.0,54,0.00,,,0.00,WUHU216HW,2013-02-18 00:24:00,
2013-02-17 18:29:00,60.9,44.6,29.94,North,0,0.0,0.0,55,0.00,,,0.00,WUHU216HW,2013-02-18 00:29:00,
2013-02-17 18:34:00,60.6,44.3,29.93,North,0,0.0,0.0,55,0.00,,,0.00,WUHU216HW,2013-02-18 00:34:00,
2013-02-17 18:40:00,60.4,44.1,29.94,North,0,0.0,0.0,56,0.00,,,0.00,WUHU216HW,2013-02-18 00:40:00,
2013-02-17 18:45:00,59.9,44.6,29.94,North,0,0.0,0.0,57,0.00,,,0.00,WUHU216HW,2013-02-18 00:45:00,
2013-02-17 18:50:00,59.7,44.4,29.94,North,0,0.0,0.0,57,0.00,,,0.00,WUHU216HW,2013-02-18 00:50:00,
2013-02-17 18:55:00,59.5,44.7,29.94,North,0,0.0,0.0,58,0.00,,,0.00,WUHU216HW,2013-02-18 00:55:00,
2013-02-17 19:01:00,59.0,44.2,29.94,North,0,0.0,0.0,58,0.00,,,0.00,WUHU216HW,2013-02-18 01:01:00,
2013-02-17 19:06:00,59.0,44.2,29.94,North,0,0.0,0.0,58,0.00,,,0.00,WUHU216HW,2013-02-18 01:06:00,
2013-02-17 19:11:00,59.0,44.2,29.95,North,0,0.0,0.0,59,0.00,,,0.00,WUHU216HW,2013-02-18 01:11:00,
2013-02-17 19:17:00,59.0,44.2,29.95,North,0,0.0,0.0,59,0.00,,,0.00,WUHU216HW,2013-02-18 01:17:00,
2013-02-17 19:22:00,58.6,44.8,29.94,North,0,0.0,0.0,60,0.00,,,0.00,WUHU216HW,2013-02-18 01:22:00,
2013-02-17 19:27:00,58.6,44.8,29.94,North,0,0.0,0.0,60,0.00,,,0.00,WUHU216HW,2013-02-18 01:27:00,
2013-02-17 19:33:00,58.6,44.8,29.94,North,0,0.0,0.0,61,0.00,,,0.00,WUHU216HW,2013-02-18 01:33:00,
2013-02-17 19:38:00,58.6,44.8,29.94,North,0,0.0,0.0,61,0.00,,,0.00,WUHU216HW,2013-02-18 01:38:00,
2013-02-17 19:43:00,58.2,44.9,29.95,North,0,0.0,0.0,61,0.00,,,0.00,WUHU216HW,2013-02-18 01:43:00,
2013-02-17 19:48:00,58.4,45.0,29.95,North,0,0.0,0.0,61,0.00,,,0.00,WUHU216HW,2013-02-18 01:48:00,
2013-02-17 19:54:00,58.6,45.2,29.95,North,0,0.0,0.0,61,0.00,,,0.00,WUHU216HW,2013-02-18 01:54:00,
2013-02-17 19:59:00,58.6,45.2,29.95,North,0,0.0,0.0,62,0.00,,,0.00,WUHU216HW,2013-02-18 01:59:00,
2013-02-17 20:04:00,58.6,45.2,29.95,North,0,0.0,0.0,62,0.00,,,0.00,WUHU216HW,2013-02-18 02:04:00,
2013-02-17 20:09:00,58.4,45.4,29.95,North,0,0.0,0.0,62,0.00,,,0.00,WUHU216HW,2013-02-18 02:09:00,
2013-02-17 20:14:00,58.2,45.3,29.95,North,0,0.0,0.0,63,0.00,,,0.00,WUHU216HW,2013-02-18 02:14:00,
2013-02-17 20:19:00,58.2,45.3,29.95,North,0,0.0,0.0,63,0.00,,,0.00,WUHU216HW,2013-02-18 02:19:00,
2013-02-17 20:25:00,58.1,45.5,29.95,North,0,0.0,0.0,63,0.00,,,0.00,WUHU216HW,2013-02-18 02:25:00,
2013-02-17 20:30:00,57.9,45.3,29.95,North,0,0.0,0.0,64,0.00,,,0.00,WUHU216HW,2013-02-18 02:30:00,
2013-02-17 20:35:00,57.9,45.3,29.95,North,0,0.0,0.0,64,0.00,,,0.00,WUHU216HW,2013-02-18 02:35:00,
2013-02-17 20:40:00,57.9,45.3,29.95,North,0,0.0,0.0,64,0.00,,,0.00,WUHU216HW,2013-02-18 02:40:00,
2013-02-17 20:45:00,57.9,45.3,29.95,North,0,0.0,0.0,64,0.00,,,0.00,WUHU216HW,2013-02-18 02:45:00,
2013-02-17 20:50:00,57.9,45.3,29.95,North,0,0.0,0.0,64,0.00,,,0.00,WUHU216HW,2013-02-18 02:50:00,
2013-02-17 20:55:00,57.9,45.3,29.95,North,0,0.0,0.0,65,0.00,,,0.00,WUHU216HW,2013-02-18 02:55:00,
2013-02-17 21:00:00,57.9,45.3,29.95,North,0,0.0,0.0,65,0.00,,,0.00,WUHU216HW,2013-02-18 03:00:00,
2013-02-17 21:05:00,57.7,46.0,29.95,North,0,0.0,0.0,65,0.00,,,0.00,WUHU216HW,2013-02-18 03:05:00,
2013-02-17 21:10:00,57.7,46.0,29.96,North,0,0.0,0.0,66,0.00,,,0.00,WUHU216HW,2013-02-18 03:10:00,
2013-02-17 21:16:00,57.7,46.0,29.95,North,0,0.0,0.0,66,0.00,,,0.00,WUHU216HW,2013-02-18 03:16:00,
2013-02-17 21:21:00,57.9,46.5,29.95,North,0,0.0,0.0,66,0.00,,,0.00,WUHU216HW,2013-02-18 03:21:00,
2013-02-17 21:26:00,57.9,46.5,29.95,North,0,0.0,0.0,67,0.00,,,0.00,WUHU216HW,2013-02-18 03:26:00,
2013-02-17 21:31:00,58.1,47.1,29.95,North,0,0.0,0.0,67,0.00,,,0.00,WUHU216HW,2013-02-18 03:31:00,
2013-02-17 21:36:00,58.1,47.1,29.95,North,0,0.0,0.0,67,0.00,,,0.00,WUHU216HW,2013-02-18 03:36:00,
2013-02-17 21:41:00,58.1,47.1,29.95,North,0,0.0,0.0,67,0.00,,,0.00,WUHU216HW,2013-02-18 03:41:00,
2013-02-17 21:47:00,57.9,46.9,29.94,North,0,0.0,0.0,68,0.00,,,0.00,WUHU216HW,2013-02-18 03:47:00,
2013-02-17 21:52:00,57.9,46.9,29.94,North,0,0.0,0.0,68,0.00,,,0.00,WUHU216HW,2013-02-18 03:52:00,
2013-02-17 21:57:00,57.7,47.2,29.94,North,0,0.0,0.0,68,0.00,,,0.00,WUHU216HW,2013-02-18 03:57:00,
2013-02-17 22:02:00,57.7,47.2,29.94,North,0,0.0,0.0,68,0.00,,,0.00,WUHU216HW,2013-02-18 04:02:00,
2013-02-17 22:07:00,57.7,47.6,29.94,North,0,0.0,0.0,69,0.00,,,0.00,WUHU216HW,2013-02-18 04:07:00,
2013-02-17 22:12:00,57.7,47.6,29.93,North,0,0.0,0.0,69,0.00,,,0.00,WUHU216HW,2013-02-18 04:12:00,
2013-02-17 22:18:00,57.7,47.6,29.93,North,0,0.0,0.0,70,0.00,,,0.00,WUHU216HW,2013-02-18 04:18:00,
2013-02-17 22:23:00,57.7,47.6,29.93,North,0,0.0,0.0,70,0.00,,,0.00,WUHU216HW,2013-02-18 04:23:00,
2013-02-17 22:29:00,57.7,47.6,29.93,North,0,0.0,0.0,70,0.00,,,0.00,WUHU216HW,2013-02-18 04:29:00,
2013-02-17 22:34:00,57.7,47.6,29.93,North,0,0.0,0.0,71,0.00,,,0.00,WUHU216HW,2013-02-18 04:34:00,
2013-02-17 22:39:00,57.9,48.5,29.93,North,0,0.0,0.0,71,0.00,,,0.00,WUHU216HW,2013-02-18 04:39:00,
2013-02-17 22:44:00,57.9,48.5,29.92,North,0,0.0,0.0,71,0.00,,,0.00,WUHU216HW,2013-02-18 04:44:00,
2013-02-17 22:49:00,57.9,48.5,29.93,North,0,0.0,0.0,71,0.00,,,0.00,WUHU216HW,2013-02-18 04:49:00,
2013-02-17 22:54:00,57.9,48.5,29.93,North,0,0.0,0.0,71,0.00,,,0.00,WUHU216HW,2013-02-18 04:54:00,
2013-02-17 22:59:00,57.9,48.5,29.93,North,0,0.0,0.0,71,0.00,,,0.00,WUHU216HW,2013-02-18 04:59:00,
2013-02-17 23:18:00,58.1,48.7,29.93,North,0,0.0,0.0,72,0.00,,,0.00,WUHU216HW,2013-02-18 05:18:00,
2013-02-17 23:23:00,58.1,48.7,29.93,North,0,0.0,0.0,73,0.00,,,0.00,WUHU216HW,2013-02-18 05:23:00,
2013-02-17 23:28:00,58.1,48.7,29.93,North,0,0.0,0.0,73,0.00,,,0.00,WUHU216HW,2013-02-18 05:28:00,
2013-02-17 23:33:00,58.2,49.6,29.93,North,0,0.0,0.0,73,0.00,,,0.00,WUHU216HW,2013-02-18 05:33:00,
2013-02-17 23:38:00,58.2,49.6,29.93,North,0,0.0,0.0,74,0.00,,,0.00,WUHU216HW,2013-02-18 05:38:00,
2013-02-17 23:43:00,58.2,49.6,29.93,North,0,0.0,0.0,74,0.00,,,0.00,WUHU216HW,2013-02-18 05:43:00,
2013-02-17 23:48:00,58.2,49.6,29.93,North,0,0.0,0.0,74,0.00,,,0.00,WUHU216HW,2013-02-18 05:48:00,
2013-02-17 23:53:00,58.2,49.6,29.93,North,0,0.0,0.0,74,0.00,,,0.00,WUHU216HW,2013-02-18 05:53:00,
2013-02-17 23:58:00,58.2,49.6,29.92,North,0,0.0,0.0,74,0.00,,,0.00,WUHU216HW,2013-02-18 05:58:00,